When you browse on this site, cookies collect data to enhance your experience and personalize the content and advertising you see.
Visit our Privacy Policy to learn more. By continuing to use the site, you agree to this use of cookies and data.
  • In United Kingdom
  • List of Countries
  • For 7 days
  • Water Temperature
  • Weather Map
  • Weather Widgets
  • user-avatar
    Login

    Hourly Weather Schwerin

    Today, 21 August, Wednesday

    Time Temperature Precipitation Wind Pressure Humidity
    00:00 +14°C° 0 mm 2 mps 764 mmHg 84%
    01:00 +14°C° 0 mm 2 mps 764 mmHg 86%
    02:00 +13°C° 0 mm 2 mps 764 mmHg 88%
    03:00 +13°C° 0 mm 2 mps 764 mmHg 90%
    04:00 +12°C° 0 mm 2 mps 764 mmHg 92%
    05:00 +13°C° 0 mm 2 mps 764 mmHg 89%
    06:00 +13°C° 0 mm 3 mps 765 mmHg 87%
    07:00 +13°C° 0 mm 3 mps 765 mmHg 85%
    08:00 +16°C° 0 mm 3 mps 765 mmHg 78%
    09:00 +17°C° 0 mm 4 mps 766 mmHg 71%
    10:00 +19°C° 0 mm 4 mps 766 mmHg 65%
    11:00 +19°C° 0.1 mm 4 mps 766 mmHg 62%
    12:00 +20°C° 0.1 mm 4 mps 766 mmHg 60%
    13:00 +21°C° 0.1 mm 4 mps 766 mmHg 57%
    14:00 +21°C° 0.1 mm 4 mps 766 mmHg 57%
    15:00 +21°C° 0.1 mm 4 mps 766 mmHg 56%
    16:00 +21°C° 0.1 mm 3 mps 766 mmHg 56%
    17:00 +20°C° 0 mm 3 mps 766 mmHg 62%
    18:00 +19°C° 0 mm 2 mps 766 mmHg 67%
    19:00 +19°C° 0 mm 1 mps 766 mmHg 73%
    20:00 +18°C° 0 mm 1 mps 766 mmHg 76%
    21:00 +16°C° 0 mm 1 mps 766 mmHg 79%
    22:00 +14°C° 0 mm 0 mps 766 mmHg 82%
    23:00 +14°C° 0 mm 1 mps 766 mmHg 84%

    Tomorrow, 22 August, Thursday

    Time Temperature Precipitation Wind Pressure Humidity
    00:00 +14°C° 0 mm 1 mps 766 mmHg 85%
    01:00 +14°C° 0 mm 1 mps 766 mmHg 87%
    02:00 +13°C° 0 mm 2 mps 766 mmHg 87%
    03:00 +13°C° 0 mm 2 mps 766 mmHg 88%
    04:00 +13°C° 0 mm 2 mps 766 mmHg 88%
    05:00 +14°C° 0 mm 2 mps 766 mmHg 84%
    06:00 +13°C° 0 mm 3 mps 766 mmHg 79%
    07:00 +14°C° 0 mm 3 mps 766 mmHg 75%
    08:00 +17°C° 0 mm 3 mps 766 mmHg 68%
    09:00 +19°C° 0 mm 4 mps 766 mmHg 61%
    10:00 +21°C° 0 mm 4 mps 765 mmHg 53%
    11:00 +22°C° 0 mm 4 mps 765 mmHg 51%
    12:00 +23°C° 0 mm 4 mps 765 mmHg 48%
    13:00 +25°C° 0 mm 5 mps 764 mmHg 45%
    14:00 +25°C° 0 mm 4 mps 764 mmHg 44%
    15:00 +26°C° 0 mm 4 mps 764 mmHg 44%
    16:00 +26°C° 0 mm 4 mps 764 mmHg 44%
    17:00 +24°C° 0 mm 3 mps 764 mmHg 50%
    18:00 +23°C° 0 mm 2 mps 764 mmHg 56%
    19:00 +21°C° 0 mm 1 mps 764 mmHg 63%
    20:00 +20°C° 0 mm 1 mps 764 mmHg 66%
    21:00 +19°C° 0 mm 1 mps 764 mmHg 69%
    22:00 +16°C° 0 mm 0 mps 765 mmHg 72%
    23:00 +15°C° 0 mm 0 mps 765 mmHg 74%

    Day after tomorrow, 23 August, Friday

    Time Temperature Precipitation Wind Pressure Humidity
    00:00 +15°C° 0 mm 0 mps 765 mmHg 76%
    01:00 +15°C° 0 mm 0 mps 765 mmHg 78%
    02:00 +14°C° 0 mm 0 mps 765 mmHg 78%
    03:00 +14°C° 0 mm 0 mps 765 mmHg 78%
    04:00 +15°C° 0 mm 1 mps 765 mmHg 78%
    05:00 +16°C° 0 mm 1 mps 765 mmHg 75%
    06:00 +16°C° 0 mm 1 mps 765 mmHg 72%
    07:00 +17°C° 0 mm 2 mps 765 mmHg 69%
    08:00 +19°C° 0 mm 2 mps 765 mmHg 63%
    09:00 +21°C° 0 mm 2 mps 765 mmHg 57%
    10:00 +24°C° 0 mm 2 mps 765 mmHg 51%
    11:00 +25°C° 0 mm 2 mps 765 mmHg 48%
    12:00 +26°C° 0 mm 2 mps 765 mmHg 46%
    13:00 +27°C° 0 mm 2 mps 764 mmHg 43%
    14:00 +27°C° 0 mm 2 mps 764 mmHg 43%
    15:00 +27°C° 0 mm 1 mps 764 mmHg 42%
    16:00 +27°C° 0 mm 1 mps 764 mmHg 42%
    17:00 +25°C° 0 mm 1 mps 764 mmHg 50%
    18:00 +23°C° 0 mm 2 mps 764 mmHg 58%
    19:00 +21°C° 0 mm 2 mps 764 mmHg 66%
    20:00 +19°C° 0 mm 2 mps 764 mmHg 69%
    21:00 +18°C° 0 mm 2 mps 764 mmHg 71%
    22:00 +17°C° 0 mm 2 mps 764 mmHg 74%
    23:00 +17°C° 0 mm 2 mps 764 mmHg 74%

    24 August, Saturday

    Time Temperature Precipitation Wind Pressure Humidity
    00:00 +17°C° 0 mm 2 mps 764 mmHg 75%
    01:00 +17°C° 0 mm 2 mps 764 mmHg 75%
    02:00 +16°C° 0 mm 2 mps 763 mmHg 75%
    03:00 +16°C° 0 mm 1 mps 763 mmHg 76%
    04:00 +16°C° 0 mm 1 mps 763 mmHg 76%
    05:00 +18°C° 0 mm 1 mps 763 mmHg 74%
    06:00 +19°C° 0 mm 1 mps 763 mmHg 73%
    07:00 +19°C° 0 mm 1 mps 763 mmHg 71%
    08:00 +21°C° 0 mm 1 mps 763 mmHg 66%
    09:00 +23°C° 0 mm 2 mps 763 mmHg 60%
    10:00 +25°C° 0 mm 2 mps 764 mmHg 55%
    11:00 +26°C° 0 mm 2 mps 763 mmHg 51%
    12:00 +27°C° 0 mm 2 mps 763 mmHg 48%
    13:00 +27°C° 0 mm 3 mps 763 mmHg 44%
    14:00 +27°C° 0 mm 3 mps 762 mmHg 46%
    15:00 +27°C° 0 mm 3 mps 762 mmHg 47%
    16:00 +27°C° 0 mm 3 mps 762 mmHg 48%
    17:00 +26°C° 0 mm 3 mps 762 mmHg 55%
    18:00 +24°C° 0 mm 3 mps 762 mmHg 61%
    19:00 +21°C° 0 mm 3 mps 761 mmHg 68%
    20:00 +20°C° 0 mm 3 mps 762 mmHg 68%
    21:00 +19°C° 0 mm 4 mps 762 mmHg 68%
    22:00 +19°C° 0 mm 4 mps 762 mmHg 68%
    23:00 +18°C° 0 mm 3 mps 762 mmHg 70%

    25 August, Sunday

    Time Temperature Precipitation Wind Pressure Humidity
    00:00 +17°C° 0 mm 3 mps 762 mmHg 72%
    01:00 +17°C° 0 mm 3 mps 762 mmHg 74%
    02:00 +17°C° 0 mm 3 mps 761 mmHg 75%
    03:00 +16°C° 0 mm 3 mps 761 mmHg 77%
    04:00 +16°C° 0 mm 3 mps 761 mmHg 79%
    05:00 +17°C° 0 mm 3 mps 761 mmHg 77%
    06:00 +18°C° 0 mm 3 mps 761 mmHg 75%
    07:00 +18°C° 0 mm 3 mps 761 mmHg 72%
    08:00 +20°C° 0 mm 3 mps 761 mmHg 66%
    09:00 +22°C° 0 mm 4 mps 761 mmHg 60%
    10:00 +25°C° 0 mm 4 mps 761 mmHg 54%
    11:00 +26°C° 0 mm 4 mps 761 mmHg 52%
    12:00 +27°C° 0 mm 4 mps 760 mmHg 50%
    13:00 +28°C° 0 mm 4 mps 760 mmHg 48%
    14:00 +28°C° 0 mm 3 mps 760 mmHg 49%
    15:00 +28°C° 0 mm 3 mps 760 mmHg 50%
    16:00 +29°C° 0 mm 3 mps 759 mmHg 51%
    17:00 +27°C° 0 mm 3 mps 759 mmHg 57%
    18:00 +26°C° 0 mm 3 mps 759 mmHg 62%
    19:00 +25°C° 0 mm 3 mps 759 mmHg 67%
    20:00 +22°C° 0 mm 3 mps 759 mmHg 70%
    21:00 +21°C° 0 mm 3 mps 759 mmHg 73%
    22:00 +20°C° 0 mm 3 mps 759 mmHg 76%
    23:00 +20°C° 0 mm 2 mps 759 mmHg 80%

    26 August, Monday

    Time Temperature Precipitation Wind Pressure Humidity
    00:00 +20°C° 0 mm 2 mps 759 mmHg 83%
    01:00 +19°C° 0 mm 2 mps 759 mmHg 87%
    02:00 +19°C° 0 mm 2 mps 759 mmHg 88%
    03:00 +20°C° 0 mm 1 mps 759 mmHg 90%
    04:00 +20°C° 0 mm 1 mps 758 mmHg 91%
    05:00 +21°C° 0 mm 1 mps 759 mmHg 88%
    06:00 +20°C° 0 mm 0 mps 759 mmHg 85%
    07:00 +20°C° 0 mm 0 mps 759 mmHg 82%
    08:00 +22°C° 0 mm 0 mps 759 mmHg 75%
    09:00 +26°C° 0 mm 1 mps 759 mmHg 68%
    10:00 +27°C° 0 mm 1 mps 759 mmHg 61%
    11:00 +28°C° 0 mm 1 mps 759 mmHg 56%
    12:00 +29°C° 0 mm 2 mps 759 mmHg 52%
    13:00 +30°C° 0 mm 2 mps 759 mmHg 47%
    14:00 +31°C° 0 mm 2 mps 759 mmHg 45%
    15:00 +31°C° 0 mm 2 mps 759 mmHg 44%
    16:00 +31°C° 0 mm 2 mps 758 mmHg 42%
    17:00 +30°C° 0 mm 2 mps 758 mmHg 48%
    18:00 +28°C° 0 mm 1 mps 759 mmHg 54%
    19:00 +26°C° 0 mm 1 mps 759 mmHg 60%
    20:00 +25°C° 0 mm 1 mps 759 mmHg 62%
    21:00 +24°C° 0 mm 1 mps 759 mmHg 64%
    22:00 +23°C° 0 mm 1 mps 760 mmHg 67%
    23:00 +22°C° 0 mm 1 mps 760 mmHg 71%
    Show more